Location: Bussy-Saint-Georges
(48.8410°N, 2.7017°E)
Time: 22:49:07
(UTC+00:00)

Cosmos 1125 Rocket - Pass Details

Date: 18 October 2021
Orbit: 758 x 779 km, 74.0° (Epoch: 07 December)

Event Time Altitude Azimuth Distance (km) Brightness Sun altitude
Rises 18:02:52 0° 204° (SSW) 3,235 7.1 -12.1°
Reaches altitude 10° 18:05:14 10° 205° (SSW) 2,309 6.3 -12.5°
Maximum altitude 18:10:29 82° 293° (WNW) 781 3.6 -13.4°
Drops below altitude 10° 18:15:45 10° 22° (NNE) 2,311 5.8 -14.2°
Sets 18:18:08 0° 23° (NNE) 3,238 6.5 -14.6°
